This demonstration page uses our WeatherBlox Daily Observations layout. Learn more.

Left ArrowRight Arrow

34.16533, -84.80231

Hourly Observations for February 19, 2015

Temp ( °F °C ) Dew Point ( °F °C ) Humidity (%) Winds ( mph kmh ) Pressure ( in mb ) Visibility ( mi km ) Precip ( " mm )
12:53 am 00:53 Mostly Clear 20 -6.7 4 -15.6 50 50 NNW 7 11 30.26 1025 10 16 0.00 0.00
1:53 am 01:53 undefined 18 -7.8 4 -15.6 54 54 undefined N/A 30.26 1025 10 16 0.00 0.00
2:53 am 02:53 Clear 17 -8.3 5 -15 59 59 Calm 30.26 1025 10 16 0.00 0.00
3:53 am 03:53 Clear 16 -8.9 4 -15.6 59 59 Calm 30.27 1025 10 16 0.00 0.00
4:53 am 04:53 Clear 15 -9.4 4 -15.6 61 61 N 8 13 30.29 1026 10 16 0.00 0.00
5:10 am 05:10 Mostly Cloudy 15 -9.4 4 -15.6 61 61 NW 6 9 30.36 1028 10 16 0.00 0.00
5:27 am 05:27 undefined 15 -9.4 4 -15.6 61 61 NNW 6 9 30.36 1028 10 16 0.00 0.00
5:53 am 05:53 Mostly Cloudy 14 -10 3 -16.1 61 61 N 8 13 30.32 1027 10 16 0.00 0.00
6:20 am 06:20 Partly Cloudy 13 -10.6 2 -16.7 61 61 VRB 6 9 30.39 1029 10 16 0.00 0.00
6:53 am 06:53 Clear 12 -11.1 2 -16.7 64 64 VRB 3 6 30.34 1028 10 16 0.00 0.00
7:53 am 07:53 undefined 12 -11.1 -3 -19.4 51 51 N 5 7 30.38 1029 10 16 0.00 0.00
8:53 am 08:53 undefined 12 -11.1 -5 -20.6 46 46 NNW 9 15 30.41 1030 10 16 0.00 0.00
9:53 am 09:53 Sunny 14 -10 -5 -20.6 42 42 N 9 15 30.41 1030 10 16 0.00 0.00
10:53 am 10:53 Sunny 16 -8.9 -5 -20.6 38 38 VRB 5 7 30.42 1030 10 16 0.00 0.00
11:53 am 11:53 Sunny 19 -7.2 -6 -21.1 32 32 VRB 6 9 30.41 1030 10 16 0.00 0.00
12:53 pm 12:53 Sunny 21 -6.1 -4 -20 33 33 VRB 3 6 30.39 1029 10 16 0.00 0.00
1:53 pm 13:53 Sunny 23 -5 -4 -20 30 30 VRB 6 9 30.36 1028 10 16 0.00 0.00
2:53 pm 14:53 Sunny 25 -3.9 -3 -19.4 29 29 VRB 5 7 30.33 1027 10 16 0.00 0.00
3:53 pm 15:53 Sunny 27 -2.8 -3 -19.4 27 27 VRB 5 7 30.33 1027 10 16 0.00 0.00
4:53 pm 16:53 Sunny 26 -3.3 -4 -20 26 26 VRB 3 6 30.33 1027 10 16 0.00 0.00
5:53 pm 17:53 Sunny 24 -4.4 -4 -20 29 29 NNW 5 7 30.35 1028 10 16 0.00 0.00
6:53 pm 18:53 Clear 22 -5.6 -2 -18.9 35 35 Calm 30.37 1028 10 16 0.00 0.00
7:53 pm 19:53 Clear 21 -6.1 -2 -18.9 36 36 Calm 30.38 1029 10 16 0.00 0.00
8:53 pm 20:53 Clear 19 -7.2 0 -17.8 43 43 Calm 30.38 1029 10 16 0.00 0.00
9:53 pm 21:53 Clear 18 -7.8 1 -17.2 47 47 VRB 3 6 30.39 1029 10 16 0.00 0.00
10:53 pm 22:53 Clear 17 -8.3 2 -16.7 51 51 N 5 7 30.39 1029 10 16 0.00 0.00
11:53 pm 23:53 Clear 15 -9.4 2 -16.7 56 56 N 7 11 30.39 1029 10 16 0.00 0.00

Powered by AerisWeather